This is the latest recevied weather packets stored in our database for station/object K1RFS. If no packets are shown the sender has not sent any weather packets the latest 10 day(s).
| Time | Temp. | Humidity | Pressure | Rain* | Wind** | Luminosity | Snow |
|---|---|---|---|---|---|---|---|
| 1788617176 | 20.56° C | 28% | 1003.8 hPa | 0 mm | - | 19 W/m² | - |
| 1788616875 | 20.56° C | 29% | 1003.4 hPa | 0 mm | - | 18 W/m² | - |
| 1788616570 | 20° C | 29% | 1003.4 hPa | 0 mm | - | 17 W/m² | - |
| 1788616265 | 18.89° C | 29% | 1003.6 hPa | 0 mm | - | 16 W/m² | - |
| 1788615960 | 18.89° C | 29% | 1003.3 hPa | 0 mm | - | 15 W/m² | - |
| 1788615669 | 18.33° C | 29% | 1003.3 hPa | 0 mm | - | 14 W/m² | - |
| 1788615355 | 17.78° C | 30% | 1003.1 hPa | 0 mm | - | 13 W/m² | - |
| 1788615054 | 17.78° C | 30% | 1003 hPa | 0 mm | - | 12 W/m² | - |
| 1788614754 | 18.33° C | 29% | 1003 hPa | 0 mm | - | 11 W/m² | - |
| 1788614449 | 18.33° C | 28% | 1003.2 hPa | 0 mm | - | 9 W/m² | - |
| 1788614144 | 18.33° C | 29% | 1003.1 hPa | 0 mm | - | 7 W/m² | - |
| 1788613840 | 18.33° C | 28% | 1003 hPa | 0 mm | - | 5 W/m² | - |
| 1788613538 | 17.22° C | 28% | 1003 hPa | 0 mm | - | 3 W/m² | - |
| 1788613234 | 16.11° C | 31% | 1003 hPa | 0 mm | - | 2 W/m² | - |
| 1788612933 | 15.56° C | 33% | 1002.6 hPa | 0 mm | - | 1 W/m² | - |
| 1788612629 | 15.56° C | 35% | 1002.5 hPa | 0 mm | - | 1 W/m² | - |
| 1788612326 | 15.56° C | 36% | 1002.5 hPa | 0 mm | - | 0 W/m² | - |
| 1788612021 | 15.56° C | 38% | 1002.5 hPa | 0 mm | - | 0 W/m² | - |
| 1788611717 | 15.56° C | 36% | 1002.4 hPa | 0 mm | - | 0 W/m² | - |
| 1788611413 | 16.11° C | 36% | 1002.5 hPa | 0 mm | - | 0 W/m² | - |
| 1788611108 | 16.11° C | 35% | 1002.4 hPa | 0 mm | - | 0 W/m² | - |
| 1788610823 | 16.11° C | 34% | 1002.3 hPa | 0 mm | - | 0 W/m² | - |
| 1788610498 | 16.67° C | 34% | 1002.4 hPa | 0 mm | - | 0 W/m² | - |
| 1788610196 | 16.67° C | 35% | 1002.2 hPa | 0 mm | - | 0 W/m² | - |
| 1788609891 | 17.78° C | 33% | 1002.3 hPa | 0 mm | - | 0 W/m² | - |
* Rain latest hour (hover to see other rain measurements)
** Current wind speed in m/s (hover to see current wind gust speed)